KUIPER-00274

导读 | 豆包AI

KUIPER-00274是亚马逊“柯伊伯计划”太空互联网星座中的一员,于2026年2月12日由法国阿丽亚娜太空公司的阿丽亚娜6号火箭发射升空。该卫星部署于近地轨道,旨在为全球提供高速宽带互联网接入服务,助力实现泛在网络覆盖,是柯伊伯计划大规模组网进程中的一颗量产卫星。

Basic Information
目录编号:
67792
目录名称:
KUIPER-00274
国际标识:
2026-030AE
轨道中心:
EARTH
卫星名称:
KUIPER-00274
卫星全名:
KUIPER-00274
卫星状态:
在轨 (已飞行102 天)
发射日期:
2026-02-12 UTC
国别 :
美国 (US)
星等 :
--
Orbit Information
数据来源 国际轨道数据 AOE轨道数据
星历时间 2026-05-24T12:39:46+0800
1天前
查看轨道信息
2026-05-21T08:00:00+0800
4天前
查看轨道信息
半长轴 7019.019km 7018.995km
偏心率 0.0003997 0.0003382
轨道倾角 51.900° 51.901°
近地点辐角 2.234° 352.996°
升交点赤经 228.878° 242.923°
平近点角 357.864° 299.800°
近地点 638.076km 638.484km
远地点 643.688km 643.232km
周期 97.538分钟 97.538分钟
每日圈数 14.76346 14.763538
Detailed Information
使用方式:
暂无
2D Orbit Map
3D Orbit Map
Orbit Altitude Analysis Chart
Orbit Inclination Analysis Chart
Orbit Comprehensive Analysis Chart
View Comprehensive Chart